Location: Oshawa
(43.9000°N, 78.8670°W)
Time: 05:26:49
(UTC-04:00)

Thor Agena Rocket - Visible Passes

Search period start: 23 August 2014 00:00
Search period end: 02 September 2014 00:00
Orbit: 762 x 809 km, 99.0° (Epoch: 22 August)

Date Brightness Start Highest point End Pass type
(mag) Time Alt. Az. Time Alt. Az. Time Alt. Az.
23 Aug 5.7 00:58:11 18° ENE 00:58:11 18° ENE 01:01:28 10° NNE visible
23 Aug 4.6 02:38:48 38° NNW 02:38:48 38° NNW 02:42:05 10° NNW visible
24 Aug 4.7 02:07:38 42° N 02:07:38 42° N 02:11:11 10° N visible
24 Aug 5.7 03:48:16 13° WNW 03:48:16 13° WNW 03:49:10 10° NW visible
25 Aug 5.1 01:36:28 31° NE 01:36:28 31° NE 01:40:00 10° N visible
25 Aug 5.3 03:17:06 22° NW 03:17:06 22° NW 03:19:18 10° NNW visible
26 Aug 5.7 01:05:18 20° NE 01:05:18 20° NE 01:08:27 10° NNE visible
26 Aug 4.9 02:45:56 32° NNW 02:45:56 32° NNW 02:48:48 10° NNW visible
27 Aug 6.1 00:34:08 11° ENE 00:34:20 11° NE 00:35:49 10° NE visible
27 Aug 4.8 02:14:46 38° N 02:14:46 38° N 02:17:58 10° N visible
27 Aug 5.9 03:55:23 11° WNW 03:55:23 11° WNW 03:55:36 10° NW visible
28 Aug 5.2 01:43:36 31° NNE 01:43:36 31° NNE 01:46:51 10° N visible
28 Aug 5.5 03:24:13 18° NW 03:24:13 18° NW 03:25:56 10° NW visible
29 Aug 5.6 01:12:26 21° NE 01:12:26 21° NE 01:15:23 10° NNE visible
29 Aug 5.2 02:53:03 27° NW 02:53:03 27° NW 02:55:31 10° NNW visible
30 Aug 6.1 00:41:16 13° NE 00:41:16 13° NE 00:43:10 10° NNE visible
30 Aug 5.0 02:21:54 33° N 02:21:54 33° N 02:24:45 10° NNW visible
31 Aug 5.3 01:50:44 30° NNE 01:50:44 30° NNE 01:53:41 10° N visible
31 Aug 5.7 03:31:22 15° NW 03:31:22 15° NW 03:32:32 10° NW visible
01 Sep 5.7 01:19:34 22° NE 01:19:34 22° NE 01:22:18 10° N visible
01 Sep 5.4 03:00:12 23° NW 03:00:12 23° NW 03:02:13 10° NNW visible
